User: anonymous   Login
Location: Unspecified
(0.0000°N, 0.0000°E)
Time: 20:54:41
(UTC+00:00)
Language:

Transit 2A - Orbit

View from above orbital plane
View from above orbital plane
View from above satellite
View from above satellite

Ground track
Ground track

The orbit data is extracted from the following two-line orbital elements,

1    45U 60007A   19258.81989544 -.00000060 +00000-0 +11749-4 0  9998
2    45 066.6961 027.2334 0252985 157.8569 203.3696 14.33648999026326
Epoch (UTC): 15 September 2019 19:40:38
Eccentricity: 0.0252985
inclination: 66.6961°
perigee height: 598 km
apogee height: 960 km
right ascension of ascending node: 27.2334°
argument of perigee: 157.8569°
revolutions per day: 14.33648999
mean anomaly at epoch: 203.3696°
orbit number at epoch: 2632

The dashed part of the orbit path shows where the satellite is in the earth's shadow,  

DLR